Terminal Aerodrome Forecast
Issued by NWS Hastings, NE

Home | Current Version | Previous Version | Text Only | Print | Product List | Glossary On
Versions: 1 2 3 4 5 6 7 8 9 10 11 12 13 14 15 16 17 18 19 20
000
FTUS45 KGID 261731
TAFEAR
TAF
KEAR 261731Z 2618/2718 32016G24KT P6SM FEW250
     FM262100 32010KT P6SM FEW250
     FM262300 VRB04KT P6SM SKC
     FM271200 16006KT P6SM SKC
      AMD LTD TO CLD VIS AND WIND=

USA.gov is the U.S. government's official web portal to all federal, state and local government web resources and services.